| time (UTC) | temp F | wind direction | speed MPH | gust MPH | rain 1hr in | rain 24hr in | rain mn in | humidity % | barometer mb |
| 20260505173029 | 77 | 168 | 5.0 | 13.0 | 0.00 | 0.01 | 0.01 | 51 | 1017.6 |
| 20260505171528 | 76 | 167 | 3.0 | 8.0 | 0.00 | 0.01 | 0.01 | 50 | 1018.0 |
| 20260505170035 | 75 | 98 | 1.0 | 11.0 | 0.00 | 0.01 | 0.01 | 51 | 1018.0 |
| 20260505164517 | 76 | 148 | 3.0 | 9.0 | 0.00 | 0.01 | 0.01 | 50 | 1018.3 |
| 20260505163033 | 75 | 157 | 5.0 | 10.0 | 0.00 | 0.01 | 0.01 | 50 | 1018.4 |
| 20260505161530 | 75 | 154 | 4.0 | 9.0 | 0.00 | 0.01 | 0.01 | 51 | 1018.6 |
| 20260505153021 | 74 | 184 | 5.0 | 8.0 | 0.00 | 0.01 | 0.01 | 54 | 1018.7 |
| 20260505151532 | 74 | 182 | 3.0 | 8.0 | 0.00 | 0.01 | 0.01 | 57 | 1018.7 |
| 20260505124534 | 66 | 161 | 1.0 | 2.0 | 0.00 | 0.01 | 0.01 | 77 | 1018.3 |
| 20260505123029 | 64 | 161 | 0.0 | 0.0 | 0.00 | 0.01 | 0.01 | 79 | 1018.2 |
| 20260505121531 | 63 | 161 | 0.0 | 0.0 | 0.00 | 0.01 | 0.01 | 84 | 1018.3 |
| 20260505120029 | 60 | 161 | 0.0 | 0.0 | 0.00 | 0.01 | 0.01 | 90 | 1018.2 |
| 20260505114528 | 56 | 161 | 0.0 | 0.0 | 0.00 | 0.01 | 0.01 | 92 | 1018.0 |
| 20260505113040 | 56 | 161 | 0.0 | 0.0 | 0.00 | 0.01 | 0.01 | 91 | 1017.9 |
| 20260505111542 | 55 | 161 | 0.0 | 0.0 | 0.00 | 0.01 | 0.01 | 91 | 1017.7 |
| 20260505101523 | 55 | 161 | 0.0 | 0.0 | 0.00 | 0.01 | 0.01 | 91 | 1017.1 |
| 20260505100018 | 55 | 161 | 0.0 | 0.0 | 0.01 | 0.01 | 0.01 | 91 | 1017.0 |
| 20260505094527 | 56 | 161 | 0.0 | 0.0 | 0.01 | 0.01 | 0.01 | 90 | 1017.0 |
| 20260505093033 | 56 | 161 | 0.0 | 0.0 | 0.01 | 0.01 | 0.01 | 90 | 1016.9 |
| 20260505091511 | 56 | 161 | 0.0 | 0.0 | 0.01 | 0.01 | 0.01 | 90 | 1016.8 |
| 20260505090021 | 56 | 161 | 0.0 | 0.0 | 0.00 | 0.00 | 0.00 | 90 | 1016.7 |
| 20260505084532 | 56 | 161 | 0.0 | 0.0 | 0.00 | 0.00 | 0.00 | 89 | 1016.4 |
| 20260505083005 | 56 | 161 | 0.0 | 0.0 | 0.00 | 0.00 | 0.00 | 89 | 1016.4 |
| 20260505081508 | 56 | 161 | 0.0 | 0.0 | 0.00 | 0.00 | 0.00 | 89 | 1016.3 |
| 20260505080030 | 56 | 161 | 0.0 | 0.0 | 0.00 | 0.00 | 0.00 | 88 | 1016.2 |
| 20260505074519 | 57 | 161 | 0.0 | 0.0 | 0.00 | 0.00 | 0.00 | 88 | 1016.2 |
| 20260505073032 | 57 | 161 | 0.0 | 0.0 | 0.00 | 0.00 | 0.00 | 88 | 1016.2 |
| 20260505071507 | 57 | 161 | 0.0 | 0.0 | 0.00 | 0.00 | 0.00 | 87 | 1016.3 |
| 20260505070020 | 57 | 161 | 0.0 | 0.0 | 0.00 | 0.00 | 0.00 | 86 | 1016.3 |
| 20260505064528 | 57 | 161 | 0.0 | 0.0 | 0.00 | 0.00 | 0.00 | 86 | 1016.4 |
| 20260505063022 | 58 | 161 | 0.0 | 0.0 | 0.00 | 0.00 | 0.00 | 85 | 1016.5 |
| 20260505061552 | 58 | 161 | 0.0 | 0.0 | 0.00 | 0.00 | 0.00 | 84 | 1016.7 |
| 20260505060008 | 58 | 161 | 0.0 | 0.0 | 0.00 | 0.00 | 0.00 | 83 | 1017.0 |
| 20260505054516 | 58 | 161 | 0.0 | 2.0 | 0.00 | 0.00 | 0.00 | 83 | 1017.1 |
| 20260505053023 | 58 | 161 | 0.0 | 0.0 | 0.00 | 0.00 | 0.00 | 82 | 1017.3 |
| 20260505051530 | 59 | 161 | 0.0 | 0.0 | 0.00 | 0.00 | 0.00 | 81 | 1017.5 |
| 20260505041522 | 60 | 161 | 0.0 | 0.0 | 0.00 | 0.00 | 0.00 | 75 | 1017.5 |
| 20260505040038 | 61 | 161 | 0.0 | 0.0 | 0.00 | 0.00 | 0.00 | 74 | 1017.6 |
| 20260505034537 | 61 | 161 | 0.0 | 0.0 | 0.00 | 0.00 | 0.00 | 72 | 1017.6 |
| 20260505033015 | 62 | 161 | 0.0 | 0.0 | 0.00 | 0.00 | 0.00 | 71 | 1017.6 |
| 20260505030026 | 63 | 161 | 0.0 | 2.0 | 0.00 | 0.00 | 0.00 | 68 | 1017.6 |
| 20260505023013 | 63 | 161 | 0.0 | 2.0 | 0.00 | 0.00 | 0.00 | 66 | 1017.5 |
| 20260505021534 | 64 | 161 | 0.0 | 2.0 | 0.00 | 0.00 | 0.00 | 64 | 1017.6 |
| 20260505020035 | 65 | 161 | 0.0 | 2.0 | 0.00 | 0.00 | 0.00 | 62 | 1017.5 |
| 20260505014527 | 65 | 161 | 0.0 | 2.0 | 0.00 | 0.00 | 0.00 | 61 | 1017.4 |
| 20260505013009 | 65 | 161 | 0.0 | 2.0 | 0.00 | 0.00 | 0.00 | 60 | 1017.4 |
| 20260505011514 | 66 | 161 | 0.0 | 2.0 | 0.00 | 0.00 | 0.00 | 57 | 1017.3 |
| 20260505010021 | 67 | 161 | 0.0 | 2.0 | 0.00 | 0.00 | 0.00 | 55 | 1017.3 |
| 20260505004528 | 67 | 161 | 0.0 | 2.0 | 0.00 | 0.00 | 0.00 | 54 | 1017.2 |
| 20260505003030 | 68 | 161 | 0.0 | 2.0 | 0.00 | 0.00 | 0.00 | 52 | 1017.2 |
| 20260505001512 | 69 | 159 | 1.0 | 2.0 | 0.00 | 0.00 | 0.00 | 51 | 1017.1 |
| 20260505000043 | 69 | 176 | 0.0 | 3.0 | 0.00 | 0.00 | 0.00 | 49 | 1017.2 |
| 20260504234525 | 69 | 182 | 1.0 | 6.0 | 0.00 | 0.00 | 0.00 | 48 | 1017.0 |
| 20260504233028 | 70 | 182 | 3.0 | 5.0 | 0.00 | 0.00 | 0.00 | 46 | 1016.9 |
| 20260504231528 | 71 | 166 | 3.0 | 7.0 | 0.00 | 0.00 | 0.00 | 44 | 1016.8 |
| 20260504230016 | 71 | 176 | 2.0 | 7.0 | 0.00 | 0.00 | 0.00 | 43 | 1016.8 |
| 20260504224527 | 72 | 198 | 5.0 | 10.0 | 0.00 | 0.00 | 0.00 | 44 | 1016.9 |
| 20260504223026 | 72 | 134 | 6.0 | 10.0 | 0.00 | 0.00 | 0.00 | 43 | 1016.9 |
| 20260504221528 | 73 | 181 | 4.0 | 10.0 | 0.00 | 0.00 | 0.00 | 43 | 1017.0 |
| 20260504220043 | 73 | 178 | 3.0 | 11.0 | 0.00 | 0.00 | 0.00 | 45 | 1016.9 |
| 20260504214520 | 73 | 173 | 2.0 | 9.0 | 0.00 | 0.00 | 0.00 | 45 | 1016.8 |
| 20260504213002 | 73 | 202 | 4.0 | 11.0 | 0.00 | 0.00 | 0.00 | 44 | 1016.9 |
| 20260504211505 | 74 | 145 | 4.0 | 11.0 | 0.00 | 0.00 | 0.00 | 42 | 1016.8 |
| 20260504210012 | 74 | 167 | 5.0 | 12.0 | 0.00 | 0.00 | 0.00 | 43 | 1016.8 |
| 20260504204509 | 75 | 272 | 4.0 | 11.0 | 0.00 | 0.00 | 0.00 | 43 | 1016.8 |
| 20260504203012 | 75 | 167 | 6.0 | 10.0 | 0.00 | 0.00 | 0.00 | 41 | 1016.8 |
| 20260504201504 | 74 | 171 | 5.0 | 12.0 | 0.00 | 0.00 | 0.00 | 41 | 1016.9 |
| 20260504200007 | 75 | 171 | 5.0 | 9.0 | 0.00 | 0.00 | 0.00 | 40 | 1016.9 |
| 20260504194515 | 76 | 167 | 5.0 | 8.0 | 0.00 | 0.00 | 0.00 | 40 | 1017.0 |
| 20260504193016 | 76 | 164 | 5.0 | 12.0 | 0.00 | 0.00 | 0.00 | 39 | 1017.2 |
| 20260504191515 | 77 | 177 | 3.0 | 9.0 | 0.00 | 0.00 | 0.00 | 39 | 1017.2 |
| 20260504190016 | 76 | 134 | 5.0 | 14.0 | 0.00 | 0.00 | 0.00 | 40 | 1017.2 |
| 20260504184516 | 76 | 84 | 3.0 | 9.0 | 0.00 | 0.00 | 0.00 | 38 | 1017.2 |
| 20260504183020 | 76 | 138 | 3.0 | 5.0 | 0.00 | 0.00 | 0.00 | 35 | 1017.4 |
| 20260504181520 | 76 | 167 | 3.0 | 6.0 | 0.00 | 0.00 | 0.00 | 36 | 1017.5 |
| 20260504180020 | 75 | 184 | 2.0 | 8.0 | 0.00 | 0.00 | 0.00 | 37 | 1017.7 |
| 20260504174520 | 77 | 18 | 0.0 | 4.0 | 0.00 | 0.00 | 0.00 | 35 | 1017.7 |